Tracking 23757 objects as of 26-Oct-2021
HD Live streaming from Space Station
objects crossing your sky now

IRIDIUM 33 DEB

Track IRIDIUM 33 DEB now!
10-day predictions


NORAD ID: 38241
Int'l Code: 1997-051ZR
Perigee: 751.4 km
Apogee: 758.3 km
Inclination: 86.3 °
Period: 99.8 minutes
Semi major axis: 7125 km
RCS: 0.0216 m2 (small)
Launch date: September 14, 1997
Source: United States (US)
Launch site: TYURATAM MISSILE AND SPACE COMPLEX (TTMTR)

Note: This is SATELLITE DEBRIS
aabbcc
Your satellite tracking list
Your tracking list is empty




NASA's NSSDC Master Catalog

Two Line Element Set (TLE):
1 38241U 97051ZR  21297.93645759  .00000581  00000-0  16681-3 0  9998
2 38241  86.3221 288.2261 0004862  56.9989 303.1678 14.43261516383574
Source of the keplerian elements: AFSPC